Tiempo Historia de Cochabamba, Bolivia

Change the Weather History Date:

Sábado, Febrero 25, 2012

  Actual Average Record
Temperature  
Temperatura media 68 ° F -  
Temperatura máxima 79 ° F 76 ° F 84 ° F (1998)
Temperatura mínima 56 ° F 53 ° F 51 ° F (1997)
Cooling Degree Days 2    
Growing Degree Days 18 (Base 50)    
Moisture  
Punto de rocío 54 ° F    
Average Humidity 68    
Maximum Humidity 88    
Minimum Humidity 44    
Precipitación  
Precipitación 0.00 pul - - ()
Presión al nivel del mar  
Presión al nivel del mar 30.13 pul    
Viento  
Velocidad del viento 3 mph ()    
Velocidad máxima del viento 9 mph    
Max Gust Speed -    
Visibilidad 6.6 Millas    
Eventos Tormenta    
Averages and records for this station are not official NWS values.
T = Trace of Precipitation, MM = Missing Value Source: Averaged Metar Reports

Daily Weather History Graph

Daily Weather History Graph

Search for Another Location

Airport:

Trip Planner

Search our weather history database for the weather conditions in past years. The results will help you decide how hot, cold, wet, or windy it might be!

Date:

Astronomía

Feb. 25, 2012 Salida Puesta
Hora real 6:22 AM BOT 6:52 PM BOT
Crepúsculo civil 6:00 AM BOT 7:14 PM BOT
Crepúsculo náutico 5:34 AM BOT 7:40 PM BOT
Crepúsculo astronómico 5:08 AM BOT 8:06 PM BOT
Luna 9:16 AM BOT (2/25) 9:07 PM BOT (2/25)
Horas de luz 13h 14m
Horas de luz
12h 30m
Creciente, 13% of the Moon is Illuminated
Feb 25
Creciente
Feb 29
Cuarto creciente
Mar 8
Luna llena
Mar 14
Cuarto menguante
Mar 22
Nueva

Hourly Weather History & Observations

Hora (BOT) Temp. Punto de rocío Humedad Presión Visibilidad Wind Dir Velocidad del viento Velocidad de ráfagas Precip Eventos Condiciones
12:00 AM 60.8 ° F 51.8 ° F 72% 30.18 pul 6.2 mi Sin viento Sin viento - N/A   Muy nublado
1:00 AM 59.0 ° F 51.8 ° F 77% 30.15 pul 6.2 mi Norte 5.8 mph - N/A   Muy nublado
2:00 AM 59.0 ° F 51.8 ° F 77% 30.18 pul 6.2 mi Sin viento Sin viento - N/A   Muy nublado
3:00 AM 59.0 ° F 53.6 ° F 82% 30.15 pul 6.2 mi Norte 5.8 mph - N/A   Muy nublado
4:00 AM 57.2 ° F 51.8 ° F 82% 30.15 pul 6.2 mi ENE 3.5 mph - N/A   Muy nublado
5:00 AM 59.0 ° F 53.6 ° F 82% 30.15 pul 6.2 mi ENE 3.5 mph - N/A   Muy nublado
6:00 AM 59.0 ° F 55.4 ° F 88% 30.15 pul 6.2 mi Sin viento Sin viento - N/A   Muy nublado
7:00 AM 57.2 ° F 53.6 ° F 88% 30.15 pul 3.7 mi ONO 5.8 mph - N/A   Nublado
8:00 AM 59 ° F 54 ° F 78%  pul 4 mi Sin viento Sin viento - -   Humo
8:00 AM 59.0 ° F 53.6 ° F 82% 30.18 pul 3.7 mi Sin viento Sin viento - N/A   Nublado
9:00 AM 62.6 ° F 55.4 ° F 77% 30.21 pul 5.0 mi Sin viento Sin viento - N/A   Nublado
10:00 AM 66.2 ° F 57.2 ° F 73% 30.21 pul 6.2 mi Sin viento Sin viento - N/A   Muy nublado
11:00 AM 71 ° F 56 ° F 50%  pul 19 mi Oeste 3.5 mph - -   Humo
11:00 AM 69.8 ° F 57.2 ° F 64% 30.21 pul 6.2 mi Oeste 3.5 mph - N/A   Muy nublado
12:00 PM 73.4 ° F 57.2 ° F 57% 30.18 pul 6.2 mi SE 3.5 mph - N/A   Muy nublado
1:00 PM 77.0 ° F 53.6 ° F 44% 30.12 pul 6.2 mi ONO 5.8 mph - N/A   Muy nublado
2:00 PM 71.6 ° F 57.2 ° F 60% 30.06 pul 6.2 mi SO 5.8 mph - N/A Tormenta Muy nublado
3:00 PM 78.8 ° F 55.4 ° F 44% 30.06 pul 6.2 mi SO 9.2 mph - N/A   Muy nublado
4:00 PM 77.0 ° F 57.2 ° F 50% 30.01 pul 6.2 mi SSO 6.9 mph - N/A   Muy nublado
5:00 PM 71 ° F 56 ° F 49%  pul 12 mi Sur 9.2 mph - -   Parcialmente nublado
5:00 PM 71.6 ° F 55.4 ° F 57% 30.01 pul 6.2 mi Sur 9.2 mph - N/A   Muy nublado
7:00 PM 68.0 ° F 53.6 ° F 60% 30.04 pul 6.2 mi SO 4.6 mph - N/A   Muy nublado
8:00 PM 66 ° F 54 ° F 56%  pul 31 mi NNO 6.9 mph - -   Nubes dispersas
8:00 PM 66.2 ° F 53.6 ° F 64% 30.06 pul 6.2 mi NNO 6.9 mph - N/A   Muy nublado
9:00 PM 62.6 ° F 53.6 ° F 72% 30.09 pul 6.2 mi Oeste 4.6 mph - N/A   Muy nublado
10:00 PM 62.6 ° F 53.6 ° F 72% 30.12 pul 6.2 mi Sin viento Sin viento - N/A   Muy nublado
11:00 PM 60.8 ° F 51.8 ° F 72% 30.15 pul 6.2 mi Oeste 3.5 mph - N/A   Muy nublado